392  
NZUS43 KILX 251310  
HWRCRS  
 
NWR HOURLY WEATHER ROUNDUP  
NATIONAL WEATHER SERVICE LINCOLN IL  
800 AM CDT MON SEP 25 2017  
 
 
CITY SKY/WX TMP DP RH WIND PRES REMARKS
 
CHAMPAIGN SUNNY 66 58 75 E5 30.04S  
LAWRENCEVILLE MOSUNNY 69 63 81 CALM 30.04R  
PEORIA SUNNY 69 63 81 CALM 30.01S  
SPRINGFIELD SUNNY 70 65 84 CALM 30.01S  

 
 
 
CITY SKY/WX TMP DP RH WIND PRES REMARKS
 
BLOOMINGTON MOSUNNY 69 63 81 S3 30.04R  
DANVILLE SUNNY 65 59 81 CALM 30.02S  
DECATUR SUNNY 68 63 84 SE5 30.03R  
EFFINGHAM SUNNY 67 65 93 CALM 30.05S  
FLORA MOSUNNY 69 65 88 CALM 30.04S  
GALESBURG SUNNY 67 61 80 SE5 30.00S  
JACKSONVILLE SUNNY 69 64 81 S3 30.01S  
LACON PTSUNNY 69 62 79 CALM 30.00S  
LA SALLE PTSUNNY 67 59 76 CALM 30.02S  
LINCOLN SUNNY 67 63 86 CALM 30.02S  
LITCHFIELD SUNNY 67 64 91 S3 30.03S FOG  
 
CITY SKY/WX TMP DP RH WIND PRES REMARKS
 
MACOMB SUNNY 63 61 93 CALM 30.01S  
MATTOON SUNNY 69 63 81 S6 30.04R  
MOLINE SUNNY 69 62 78 E3 29.98R  
OLNEY SUNNY 67 65 92 CALM 30.05R  
PARIS MOSUNNY 64 62 92 CALM 30.05S  
PONTIAC SUNNY 69 65 89 CALM 30.03S  
QUINCY SUNNY 68 64 87 S5 29.99R  
RANTOUL SUNNY 68 60 77 SE5 30.05R  
ROBINSON MOSUNNY 65 62 92 CALM 30.05S  
TAYLORVILLE SUNNY 68 63 85 S3 30.03S  
TERRE HAUTE MOSUNNY 68 59 73 CALM 30.04S  

 
 
 
CITY SKY/WX TMP DP RH WIND PRES REMARKS
 
BURLINGTON SUNNY 69 65 86 S3 29.98R  
CHICAGO MOSUNNY 72 58 61 SW5 30.01S  
DES MOINES MOCLDY 68 64 87 S3 29.94R  
EVANSVILLE SUNNY 71 68 90 VRB6 30.04R  
INDIANAPOLIS PTSUNNY 70 58 65 CALM 30.06R  
KANSAS CITY PTCLDY 68 65 90 S7 29.95R  
MILWAUKEE MOSUNNY 73 61 65 SW8 30.01R  
ST LOUIS MOSUNNY 73 66 78 SE5 30.02S  

 
 
 
 
CLICK HERE TO GO TO PREVIOUS BULLETINS.

The Nexlab IL Page Main Text Page